EW2270 Weather Reports


Display with metric or nautical units.
time (UTC)temp
F
wind
direction
speed
MPH
gust
MPH
rain 1hr
in
rain 24hr
in
rain mn
in
humidity
%
barometer
mb
20260502223020 77 23 9.0 14.0 0.00 0.00 0.00 39 1010.3
20260502221518 77 4 10.0 15.0 0.00 0.00 0.00 40 1010.4
20260502220016 77 342 8.0 15.0 0.00 0.00 0.00 40 1010.5
20260502214519 76 335 8.0 16.0 0.00 0.00 0.00 42 1010.7
20260502213012 76 7 10.0 15.0 0.00 0.00 0.00 39 1010.9
20260502211522 76 8 11.0 15.0 0.00 0.00 0.00 41 1010.9
20260502210007 76 350 8.0 12.0 0.00 0.00 0.00 42 1011.1
20260502204505 75 262 6.0 11.0 0.00 0.00 0.00 43 1011.2
20260502203005 74 257 6.0 11.0 0.00 0.00 0.00 43 1011.4
20260502201504 74 278 6.0 12.0 0.00 0.00 0.00 43 1011.5
20260502200101 74 273 8.0 10.0 0.00 0.00 0.00 43 1011.6
20260502194602 73 289 6.0 12.0 0.00 0.00 0.00 44 1011.8
20260502193100 73 271 9.0 15.0 0.00 0.00 0.00 43 1011.9
20260502191555 72 245 7.0 11.0 0.00 0.00 0.00 45 1011.9
20260502190054 72 290 7.0 11.0 0.00 0.00 0.00 44 1011.9
20260502184553 71 250 7.0 13.0 0.00 0.00 0.00 45 1012.0
20260502183057 71 257 7.0 11.0 0.00 0.00 0.00 43 1012.0
20260502181551 71 283 6.0 11.0 0.00 0.00 0.00 40 1011.9
20260502163047 67 278 4.0 7.0 0.00 0.00 0.00 48 1012.1
20260502161551 65 273 3.0 6.0 0.00 0.00 0.00 51 1012.1
20260502151545 60 255 2.0 3.0 0.00 0.00 0.00 57 1011.9
20260502123034 54 171 0.0 4.0 0.00 0.00 0.00 59 1011.3
20260502121531 55 146 1.0 7.0 0.00 0.00 0.00 54 1011.2
20260502114531 57 196 2.0 3.0 0.00 0.00 0.00 53 1011.2
20260502113025 57 333 4.0 6.0 0.00 0.00 0.00 52 1011.1
20260502111519 62 321 3.0 7.0 0.00 0.00 0.00 44 1011.1
20260502110019 68 142 4.0 11.0 0.00 0.00 0.00 32 1011.2
20260502104521 69 106 2.0 8.0 0.00 0.00 0.00 30 1011.3
20260502103016 68 207 2.0 6.0 0.00 0.00 0.00 31 1011.2
20260502101515 69 109 8.0 14.0 0.00 0.00 0.00 31 1011.2
20260502091512 70 121 5.0 12.0 0.00 0.00 0.00 30 1011.3
20260502070108 66 226 1.0 5.0 0.00 0.00 0.00 38 1011.5
20260502064620 66 271 3.0 5.0 0.00 0.00 0.00 36 1011.5
20260502063117 65 253 3.0 8.0 0.00 0.00 0.00 38 1011.5
20260502061555 67 245 1.0 3.0 0.00 0.00 0.00 36 1011.5
20260502060053 68 187 2.0 6.0 0.00 0.00 0.00 33 1011.6
20260502054553 69 267 4.0 9.0 0.00 0.00 0.00 32 1011.6
20260502053058 69 231 2.0 5.0 0.00 0.00 0.00 33 1011.7
20260502051551 69 234 3.0 6.0 0.00 0.00 0.00 32 1011.8
20260502050150 70 141 2.0 9.0 0.00 0.00 0.00 32 1011.7
20260502044556 70 290 2.0 7.0 0.00 0.00 0.00 30 1011.7
20260502043122 71 148 5.0 11.0 0.00 0.00 0.00 30 1011.6
20260502041559 71 98 1.0 7.0 0.00 0.00 0.00 33 1011.7
20260502040048 71 55 7.0 11.0 0.00 0.00 0.00 37 1011.7
20260502034549 71 70 7.0 13.0 0.00 0.00 0.00 38 1011.7
20260502033048 71 37 6.0 15.0 0.00 0.00 0.00 39 1011.7
20260502031547 71 43 7.0 14.0 0.00 0.00 0.00 38 1011.7
20260502030049 71 40 13.0 18.0 0.00 0.00 0.00 36 1011.5
20260502024544 72 47 12.0 17.0 0.00 0.00 0.00 35 1011.5
20260502023043 69 40 7.0 12.0 0.00 0.00 0.00 41 1011.4
20260502021542 70 78 8.0 12.0 0.00 0.00 0.00 41 1011.4
20260502020042 70 53 9.0 13.0 0.00 0.00 0.00 43 1011.4
20260502014541 71 51 7.0 10.0 0.00 0.00 0.00 42 1011.4
20260502013048 72 49 6.0 10.0 0.00 0.00 0.00 42 1011.5
20260502011539 73 52 5.0 10.0 0.00 0.00 0.00 42 1011.7
20260502010038 73 13 8.0 13.0 0.00 0.00 0.00 42 1011.7
20260502004542 74 11 8.0 13.0 0.00 0.00 0.00 41 1011.7
20260502003033 75 2 10.0 15.0 0.00 0.00 0.00 37 1011.8
20260502001533 77 8 12.0 18.0 0.00 0.00 0.00 36 1012.0
20260502000030 77 20 11.0 17.0 0.00 0.00 0.00 34 1012.1
20260501234529 77 338 11.0 18.0 0.00 0.00 0.00 34 1012.2
20260501233027 77 33 11.0 17.0 0.00 0.00 0.00 35 1012.3
20260501231523 77 11 11.0 16.0 0.00 0.00 0.00 33 1012.6
20260501230025 76 49 12.0 16.0 0.00 0.00 0.00 33 1012.8
20260501224520 77 23 12.0 18.0 0.00 0.00 0.00 30 1012.9